Temp
83 85 85 86 87 87 87 88 85 86 85 85 85 84 83 83 84 83 83 82 83 81
82 83 84 84 86 87 86 91 86 86 86 86 84 84 82 83 80 81 82 82 83 82
82 83 84 83 84 85 87 87 85 86 85 86 86 85 82 83 82 81 82 84 81 82
83 84 83 84 84 84 85 87 87 88 86 85 85 86 84 83 83 82 81 83 83 81
84 83 84 82 85 85 85 86 87 86 86 85 85 85 84 83 85 83 82 82 83 83
85 84 84 83 85 85 84 85 87 86 84 85 85 84 84 84 84 84 84 84 83 83
85 85 85 84 83 85 85 84 85 85 85 85 85 85 85 85 84 84 85 85 85 84
86 86 85 84 84 84 84 85 85 84 85 85 86 89 84 84 84 83 84 85 85 85
85 84 85 84 84 83 83 84 84 84 84 84 89 78 74 81 85 84 83 82 83 85
85 84 83 84 83 83 82 84 83 83 84 83 85 73 71 74 86 84 83 83 83 85
86 84 84 83 83 82 84 83 83 83 83 84 85 72 68 71 83 84 83 84 83 83
87 85 84 83 83 83 83 83 83 84 83 83 84 69 68 69 80 83 82 83 83 83
87 86 84 83 83 84 84 84 86 85 85 80 83 70 65 69 85 82 83 82 82 72
88 86 85 84 84 84 84 85 83 84 85 85 83 83 63 61 82 85 84 84 85 86
MSLP
1014.65 1014.92 1015.26 1015.33 1015.22 1015.47 1015.66 1015.74 1016.25 1016.73 1017.40 1017.88 1018.35 1018.58 1018.90 1019.28 1019.45 1019.53 1019.58 1019.67 1019.56 1019.60
1014.20 1014.43 1014.67 1014.94 1015.09 1015.33 1015.40 1015.64 1015.89 1016.38 1017.01 1017.31 1017.92 1018.34 1018.68 1019.10 1019.31 1019.43 1019.59 1019.60 1019.54 1019.60
1013.52 1013.96 1014.23 1014.55 1014.80 1015.06 1015.25 1015.35 1016.08 1016.22 1016.55 1016.94 1017.26 1017.62 1018.36 1018.67 1018.86 1019.25 1019.39 1019.33 1019.37 1019.41
1012.62 1013.32 1013.92 1014.09 1014.47 1014.64 1014.99 1015.20 1015.45 1015.91 1016.22 1016.64 1017.05 1017.42 1017.87 1018.20 1018.38 1018.66 1018.87 1018.88 1018.88 1019.06
1011.60 1012.50 1013.00 1013.50 1013.70 1014.18 1014.48 1014.87 1015.14 1015.56 1016.02 1016.39 1016.72 1017.11 1017.45 1017.80 1017.96 1018.22 1018.55 1018.58 1018.56 1018.60
1010.58 1011.26 1011.95 1012.74 1013.14 1013.52 1014.08 1014.45 1014.77 1015.11 1015.55 1015.95 1016.35 1016.73 1017.00 1017.25 1017.58 1017.79 1017.89 1018.01 1018.08 1018.16
1009.34 1010.00 1010.82 1011.62 1012.44 1012.86 1013.28 1013.81 1014.20 1014.60 1014.96 1015.41 1015.82 1016.18 1016.46 1016.68 1017.02 1017.26 1017.43 1017.44 1017.57 1017.65
1008.00 1009.08 1009.97 1010.66 1011.31 1012.04 1012.59 1013.01 1013.54 1014.00 1014.33 1014.73 1015.12 1015.44 1015.81 1016.13 1016.34 1016.62 1016.86 1016.93 1017.02 1017.10
1007.54 1008.34 1008.98 1009.70 1010.37 1011.18 1011.77 1012.18 1012.73 1013.18 1013.56 1013.90 1014.20 1014.53 1014.88 1015.37 1015.71 1015.84 1016.16 1016.40 1016.50 1016.52
1006.22 1007.28 1008.05 1008.80 1009.65 1010.13 1010.79 1011.32 1011.75 1012.26 1012.68 1013.01 1013.36 1013.66 1014.00 1014.43 1014.87 1015.11 1015.30 1015.57 1015.80 1015.98
1005.08 1006.01 1007.16 1008.06 1008.64 1009.41 1009.92 1010.41 1010.78 1011.22 1011.66 1012.07 1012.44 1012.84 1013.28 1013.62 1014.08 1014.24 1014.41 1014.66 1014.95 1015.18
1003.97 1005.08 1006.10 1006.90 1007.61 1008.32 1009.07 1009.60 1009.90 1010.22 1010.65 1011.09 1011.47 1011.91 1012.46 1013.17 1013.63 1013.64 1013.72 1013.88 1014.14 1014.36
1003.37 1004.28 1005.13 1005.90 1006.73 1007.54 1008.06 1008.34 1008.88 1009.28 1009.64 1010.15 1010.58 1010.99 1011.46 1012.20 1012.77 1012.93 1013.06 1013.20 1013.39 1013.58
1002.38 1003.23 1004.11 1005.16 1005.99 1006.64 1007.26 1007.74 1008.18 1008.55 1008.86 1009.29 1009.69 1010.07 1010.52 1011.22 1011.79 1011.81 1012.08 1012.20 1012.25 1012.49
Wind_Speed
12 9 8 7 5 3 6 7 11 8 10 8 6 5 6 3 4 4 3 5 2 3
12 12 10 8 5 5 5 1 12 11 8 9 10 7 6 5 5 4 3 5 4 2
17 15 9 10 7 7 6 7 9 12 11 8 6 8 9 7 8 7 6 5 7 5
17 17 15 11 12 10 9 5 6 5 6 9 8 6 6 7 4 10 7 6 5 7
18 18 17 15 14 12 10 9 5 7 6 7 7 8 7 9 8 8 7 7 6 7
19 19 19 18 15 15 13 10 11 8 9 8 9 8 9 9 9 8 9 9 8 7
21 20 19 17 18 15 13 14 13 12 11 11 10 10 10 10 10 9 9 7 8 7
20 19 18 18 18 17 17 14 14 13 13 13 12 11 11 10 10 11 10 9 9 8
18 18 18 18 16 17 17 16 15 15 15 14 11 14 15 14 11 10 11 11 10 8
18 19 19 17 18 17 18 16 16 16 15 15 15 14 17 18 12 11 10 10 10 10
17 20 18 18 17 17 15 17 16 16 16 15 14 16 14 16 14 12 11 11 12 11
19 18 19 19 19 16 16 15 16 16 17 17 15 17 17 12 9 12 12 11 10 9
17 16 18 19 18 16 16 16 14 16 16 17 16 16 18 16 11 12 10 10 12 14
15 18 17 16 15 15 16 15 15 15 14 16 16 16 18 19 14 12 10 11 11 11
Wind_Direction
200 208 216 239 201 193 199 190 173 168 163 175 188 211 167 187 230 222 226 277 295 327
203 207 204 219 213 201 246 272 153 167 176 179 175 205 167 221 205 207 212 226 248 255
200 199 206 208 211 211 217 235 166 175 176 183 194 192 171 219 186 189 201 223 201 220
193 202 206 208 210 195 223 231 186 182 176 179 193 203 186 230 251 189 204 240 214 197
195 196 199 212 199 204 196 204 215 187 193 193 198 202 202 207 238 189 208 224 230 217
199 196 202 201 215 197 203 208 205 203 195 202 203 212 207 208 216 244 207 215 210 222
198 201 199 197 202 208 197 200 209 210 205 205 206 212 215 204 212 222 237 227 222 224
199 201 197 201 197 203 205 206 205 208 213 204 209 209 209 215 214 216 224 233 225 228
195 195 205 201 202 197 205 203 204 207 210 210 211 210 201 200 216 216 214 226 238 242
189 198 201 201 200 203 200 205 204 207 210 213 215 209 204 200 207 215 222 219 224 230
191 193 196 201 204 205 203 205 204 207 210 213 214 207 205 202 208 212 216 216 223 225
194 190 192 199 203 202 204 206 211 211 210 212 217 201 202 183 207 219 222 225 233 234
192 192 195 199 201 203 205 210 209 215 214 213 217 205 201 189 215 220 222 226 232 228
191 196 193 195 197 200 207 209 212 216 218 216 216 218 197 192 208 220 219 226 227 227